Location: Chèvreville
(49.1099°N, 2.8495°E)
Time: 08:40:22
(UTC+00:00)

VELOX 1 - Pass Details

Date: 10 December 2023
Orbit: 608 x 622 km, 98.4° (Epoch: 24 February)

Event Time Altitude Azimuth Distance (km) Brightness Sun altitude
Rises 06:35:54 0° 178° (S) 2,856 ? -8.7°
Reaches altitude 10° 06:38:07 10° 183° (S) 1,956 ? -8.4°
Maximum altitude 06:42:14 50° 259° (W) 783 ? -7.8°
Drops below altitude 10° 06:46:25 10° 336° (NNW) 1,976 ? -7.2°
Sets 06:48:40 0° 342° (NNW) 2,888 ? -6.8°
